sat.trackr.live / text

‹ back to catalog

STARLINK-36729

NORAD 67905 · 2026-036B

PAYLOAD ACTIVE UNKNOWN

§ Identity

Operator
Country
US
Launch date
2026-02-22
Launch site
AFETR
Launch vehicle
Mass (kg)
RCS (m²)

Purposes: comms

External: N2YO · Heavens-Above · Gunter

§ Orbital elements

Epoch: 2026-09-19T22:12:46.814112Z

Period
94.27 min
Inclination
42.9976°
Eccentricity
0.0000794
Mean motion
15.27587245 rev/d
Perigee alt
482.5 km
Apogee alt
483.6 km
Semi-major
6,861.2 km
B*
3.8087e-4
RAAN
228.7058°
Arg perigee
279.4178°
Mean anomaly
80.6584°
Rev number
3,342

§ Raw data

STARLINK-367291 67905U 26036B   26262.92554183  .00010236  00000+0  38087-3 0  99992 67905  42.9976 228.7058 0000794 279.4178  80.6584 15.27587245 33425

JSON: /api/v1/satellites/67905 · /tle

For live sub-satellite position, see the globe view (requires WebGL).

§ Visibility from observer

Set your observer location to see the next 7 days of passes ≥ 10°. The values pass through the URL so the page stays shareable.

No JS? Fill the form by hand. The geolocation button needs JavaScript.